Year,Month,Day,Hour,Minute,Value (Times are PST for windspeed in km/hr)
2010,04,03,00,00,26.90
2010,04,03,00,01,36.40
2010,04,03,00,02,46.30
2010,04,03,00,03,32.70
2010,04,03,00,04,26.10
2010,04,03,00,05,32.80
2010,04,03,00,06,27.70
2010,04,03,00,07,27.80
2010,04,03,00,08,28.50
2010,04,03,00,09,32.40
2010,04,03,00,10,28.80
2010,04,03,00,11,32.00
2010,04,03,00,12,29.80
2010,04,03,00,13,34.60
2010,04,03,00,14,42.00
2010,04,03,00,15,32.30
2010,04,03,00,16,39.80
2010,04,03,00,17,30.40
2010,04,03,00,18,25.60
2010,04,03,00,19,20.40
2010,04,03,00,20,22.10
2010,04,03,00,21,27.80
2010,04,03,00,22,24.20
2010,04,03,00,23,34.00
2010,04,03,00,24,26.10
2010,04,03,00,25,19.80
2010,04,03,00,26,22.60
2010,04,03,00,27,29.50
2010,04,03,00,28,30.50
2010,04,03,00,29,33.90
2010,04,03,00,30,27.00
2010,04,03,00,31,37.30
2010,04,03,00,32,40.50
2010,04,03,00,33,41.10
2010,04,03,00,34,29.30
2010,04,03,00,35,27.70
2010,04,03,00,36,28.30
2010,04,03,00,37,22.50
2010,04,03,00,38,25.10
2010,04,03,00,39,35.60
2010,04,03,00,40,28.10
2010,04,03,00,41,26.20
2010,04,03,00,42,32.40
2010,04,03,00,43,28.20
2010,04,03,00,44,27.00
2010,04,03,00,45,33.20
2010,04,03,00,46,24.60
2010,04,03,00,47,33.60
2010,04,03,00,48,28.50
2010,04,03,00,49,20.90
2010,04,03,00,50,25.20
2010,04,03,00,51,23.20
2010,04,03,00,52,22.70
2010,04,03,00,53,29.70
2010,04,03,00,54,30.40
2010,04,03,00,55,28.80
2010,04,03,00,56,25.60
2010,04,03,00,57,21.00
2010,04,03,00,58,15.60
2010,04,03,00,59,18.30
2010,04,03,01,00,21.50
2010,04,03,01,01,26.90
2010,04,03,01,02,26.40
2010,04,03,01,03,26.80
2010,04,03,01,04,23.50
2010,04,03,01,05,23.40
2010,04,03,01,06,18.50
2010,04,03,01,07,16.70
2010,04,03,01,08,24.40
2010,04,03,01,09,21.60
2010,04,03,01,10,22.40
2010,04,03,01,11,22.20
2010,04,03,01,12,30.00
2010,04,03,01,13,24.00
2010,04,03,01,14,21.30
2010,04,03,01,15,20.10
2010,04,03,01,16,27.30
2010,04,03,01,17,26.70
2010,04,03,01,18,26.70
2010,04,03,01,19,26.30
2010,04,03,01,20,24.70
2010,04,03,01,21,27.60
2010,04,03,01,22,16.10
2010,04,03,01,23,22.20
2010,04,03,01,24,17.50
2010,04,03,01,25,18.40
2010,04,03,01,26,24.30
2010,04,03,01,27,18.10
2010,04,03,01,28,15.60
2010,04,03,01,29,20.00
2010,04,03,01,30,27.90
2010,04,03,01,31,17.60
2010,04,03,01,32,17.90
2010,04,03,01,33,20.80
2010,04,03,01,34,19.60
2010,04,03,01,35,18.80
2010,04,03,01,36,20.60
2010,04,03,01,37,18.60
2010,04,03,01,38,15.30
2010,04,03,01,39,19.20
2010,04,03,01,40,15.90
2010,04,03,01,41,15.60
2010,04,03,01,42,10.80
2010,04,03,01,43,15.70
2010,04,03,01,44,16.40
2010,04,03,01,45,17.30
2010,04,03,01,46,15.00
2010,04,03,01,47,23.30
2010,04,03,01,48,22.20
2010,04,03,01,49,21.60
2010,04,03,01,50,24.70
2010,04,03,01,51,22.40
2010,04,03,01,52,19.00
2010,04,03,01,53,22.30
2010,04,03,01,54,21.20
2010,04,03,01,55,26.20
2010,04,03,01,56,21.00
2010,04,03,01,57,17.90
2010,04,03,01,58,21.10
2010,04,03,01,59,23.30
2010,04,03,02,00,16.20
2010,04,03,02,01,26.50
2010,04,03,02,02,14.50
2010,04,03,02,03,16.90
2010,04,03,02,04,35.70
2010,04,03,02,05,24.00
2010,04,03,02,06,22.70
2010,04,03,02,07,26.90
2010,04,03,02,08,20.40
2010,04,03,02,09,23.20
2010,04,03,02,10,18.60
2010,04,03,02,11,21.10
2010,04,03,02,12,20.00
2010,04,03,02,13,21.80
2010,04,03,02,14,20.70
2010,04,03,02,15,27.90
2010,04,03,02,16,30.50
2010,04,03,02,17,30.20
2010,04,03,02,18,20.90
2010,04,03,02,19,25.60
2010,04,03,02,20,25.80
2010,04,03,02,21,23.10
2010,04,03,02,22,22.20
2010,04,03,02,23,29.10
2010,04,03,02,24,28.80
2010,04,03,02,25,16.90
2010,04,03,02,26,25.50
2010,04,03,02,27,27.60
2010,04,03,02,28,16.00
2010,04,03,02,29,19.50
2010,04,03,02,30,17.90
2010,04,03,02,31,22.40
2010,04,03,02,32,26.90
2010,04,03,02,33,25.80
2010,04,03,02,34,21.10
2010,04,03,02,35,19.40
2010,04,03,02,36,20.70
2010,04,03,02,37,30.20
2010,04,03,02,38,28.70
2010,04,03,02,39,27.20
2010,04,03,02,40,21.30
2010,04,03,02,41,24.20
2010,04,03,02,42,29.20
2010,04,03,02,43,17.20
2010,04,03,02,44,21.70
2010,04,03,02,45,25.00
2010,04,03,02,46,19.50
2010,04,03,02,47,20.50
2010,04,03,02,48,20.00
2010,04,03,02,49,24.70
2010,04,03,02,50,23.20
2010,04,03,02,51,26.00
2010,04,03,02,52,22.80
2010,04,03,02,53,20.20
2010,04,03,02,54,23.30
2010,04,03,02,55,21.50
2010,04,03,02,56,25.80
2010,04,03,02,57,27.50
2010,04,03,02,58,20.80
2010,04,03,02,59,22.50
2010,04,03,03,00,17.00
2010,04,03,03,01,16.70
2010,04,03,03,02,20.40
2010,04,03,03,03,16.00
2010,04,03,03,04,18.90
2010,04,03,03,05,23.60
2010,04,03,03,06,19.10
2010,04,03,03,07,23.70
2010,04,03,03,08,27.10
2010,04,03,03,09,33.20
2010,04,03,03,10,33.30
2010,04,03,03,11,31.60
2010,04,03,03,12,25.60
2010,04,03,03,13,31.30
2010,04,03,03,14,21.60
2010,04,03,03,15,22.70
2010,04,03,03,16,20.30
2010,04,03,03,17,13.20
2010,04,03,03,18,17.80
2010,04,03,03,19,13.00
2010,04,03,03,20,15.50
2010,04,03,03,21,13.10
2010,04,03,03,22,13.40
2010,04,03,03,23,18.60
2010,04,03,03,24,14.20
2010,04,03,03,25,15.20
2010,04,03,03,26,9.40
2010,04,03,03,27,11.10
2010,04,03,03,28,14.80
2010,04,03,03,29,21.20
2010,04,03,03,30,17.80
2010,04,03,03,31,14.60
2010,04,03,03,32,23.50
2010,04,03,03,33,25.80
2010,04,03,03,34,21.20
2010,04,03,03,35,16.40
2010,04,03,03,36,25.30
2010,04,03,03,37,15.80
2010,04,03,03,38,23.10
2010,04,03,03,39,22.30
2010,04,03,03,40,27.60
2010,04,03,03,41,25.20
2010,04,03,03,42,17.00
2010,04,03,03,43,22.50
2010,04,03,03,44,31.60
2010,04,03,03,45,19.80
2010,04,03,03,46,27.00
2010,04,03,03,47,13.60
2010,04,03,03,48,22.30
2010,04,03,03,49,35.80
2010,04,03,03,50,34.60
2010,04,03,03,51,29.60
2010,04,03,03,52,36.60
2010,04,03,03,53,17.50
2010,04,03,03,54,25.20
2010,04,03,03,55,17.20
2010,04,03,03,56,15.60
2010,04,03,03,57,19.50
2010,04,03,03,58,22.50
2010,04,03,03,59,21.10
2010,04,03,04,00,18.90
2010,04,03,04,01,22.90
2010,04,03,04,02,19.20
2010,04,03,04,03,19.10
2010,04,03,04,04,20.00
2010,04,03,04,05,19.80
2010,04,03,04,06,17.90
2010,04,03,04,07,13.50
2010,04,03,04,08,13.30
2010,04,03,04,09,15.30
2010,04,03,04,10,10.20
2010,04,03,04,11,12.50
2010,04,03,04,12,13.10
2010,04,03,04,13,13.70
2010,04,03,04,14,11.30
2010,04,03,04,15,17.00
2010,04,03,04,16,17.90
2010,04,03,04,17,15.60
2010,04,03,04,18,9.00
2010,04,03,04,19,16.80
2010,04,03,04,20,17.90
2010,04,03,04,21,19.60
2010,04,03,04,22,22.20
2010,04,03,04,23,17.90
2010,04,03,04,24,17.20
2010,04,03,04,25,14.50
2010,04,03,04,26,31.60
2010,04,03,04,27,27.90
2010,04,03,04,28,31.40
2010,04,03,04,29,30.00
2010,04,03,04,30,33.10
2010,04,03,04,31,24.90
2010,04,03,04,32,28.60
2010,04,03,04,33,27.80
2010,04,03,04,34,29.20
2010,04,03,04,35,25.60
2010,04,03,04,36,27.10
2010,04,03,04,37,26.90
2010,04,03,04,38,26.80
2010,04,03,04,39,30.40
2010,04,03,04,40,21.90
2010,04,03,04,41,19.30
2010,04,03,04,42,19.60
2010,04,03,04,43,20.50
2010,04,03,04,44,20.70
2010,04,03,04,45,21.10
2010,04,03,04,46,16.40
2010,04,03,04,47,18.30
2010,04,03,04,48,20.70
2010,04,03,04,49,13.50
2010,04,03,04,50,20.50
2010,04,03,04,51,24.00
2010,04,03,04,52,20.80
2010,04,03,04,53,22.30
2010,04,03,04,54,21.60
2010,04,03,04,55,12.50
2010,04,03,04,56,15.70
2010,04,03,04,57,20.30
2010,04,03,04,58,15.90
2010,04,03,04,59,18.70
2010,04,03,05,00,22.00
2010,04,03,05,01,23.70
2010,04,03,05,02,20.50
2010,04,03,05,03,18.60
2010,04,03,05,04,19.60
2010,04,03,05,05,22.00
2010,04,03,05,06,20.50
2010,04,03,05,07,20.60
2010,04,03,05,08,18.60
2010,04,03,05,09,18.90
2010,04,03,05,10,25.50
2010,04,03,05,11,23.60
2010,04,03,05,12,16.30
2010,04,03,05,13,21.10
2010,04,03,05,14,19.70
2010,04,03,05,15,16.80
2010,04,03,05,16,15.30
2010,04,03,05,17,19.80
2010,04,03,05,18,21.90
2010,04,03,05,19,19.20
2010,04,03,05,20,27.30
2010,04,03,05,21,26.30
2010,04,03,05,22,21.30
2010,04,03,05,23,22.20
2010,04,03,05,24,20.20
2010,04,03,05,25,13.70
2010,04,03,05,26,17.00
2010,04,03,05,27,25.60
2010,04,03,05,28,25.00
2010,04,03,05,29,23.30
2010,04,03,05,30,20.30
2010,04,03,05,31,11.80
2010,04,03,05,32,19.90
2010,04,03,05,33,23.80
2010,04,03,05,34,22.10
2010,04,03,05,35,11.80
2010,04,03,05,36,13.70
2010,04,03,05,37,18.20
2010,04,03,05,38,18.10
2010,04,03,05,39,14.70
2010,04,03,05,40,16.50
2010,04,03,05,41,12.30
2010,04,03,05,42,11.70
2010,04,03,05,43,14.20
2010,04,03,05,44,8.70
2010,04,03,05,45,16.90
2010,04,03,05,46,12.70
2010,04,03,05,47,7.90
2010,04,03,05,48,12.60
2010,04,03,05,49,18.90
2010,04,03,05,50,14.30
2010,04,03,05,51,23.00
2010,04,03,05,52,11.50
2010,04,03,05,53,20.00
2010,04,03,05,54,19.40
2010,04,03,05,55,15.40
2010,04,03,05,56,24.10
2010,04,03,05,57,15.60
2010,04,03,05,58,20.10
2010,04,03,05,59,23.00
2010,04,03,06,00,18.30
2010,04,03,06,01,12.30
2010,04,03,06,02,21.70
2010,04,03,06,03,16.60
2010,04,03,06,04,21.70
2010,04,03,06,05,16.70
2010,04,03,06,06,20.20
2010,04,03,06,07,19.40
2010,04,03,06,08,20.70
2010,04,03,06,09,10.80
2010,04,03,06,10,16.80
2010,04,03,06,11,13.90
2010,04,03,06,12,23.10
2010,04,03,06,13,22.30
2010,04,03,06,14,16.70
2010,04,03,06,15,19.70
2010,04,03,06,16,19.20
2010,04,03,06,17,14.60
2010,04,03,06,18,15.30
2010,04,03,06,19,14.60
2010,04,03,06,20,21.20
2010,04,03,06,21,19.50
2010,04,03,06,22,23.30
2010,04,03,06,23,22.10
2010,04,03,06,24,18.10
2010,04,03,06,25,21.60
2010,04,03,06,26,15.70
2010,04,03,06,27,8.10
2010,04,03,06,28,14.20
2010,04,03,06,29,18.10
2010,04,03,06,30,12.10
2010,04,03,06,31,14.00
2010,04,03,06,32,19.90
2010,04,03,06,33,28.30
2010,04,03,06,34,20.50
2010,04,03,06,35,21.60
2010,04,03,06,36,23.60
2010,04,03,06,37,18.00
2010,04,03,06,38,14.90
2010,04,03,06,39,22.40
2010,04,03,06,40,26.80
2010,04,03,06,41,23.90
2010,04,03,06,42,20.40
2010,04,03,06,43,20.00
2010,04,03,06,44,21.50
2010,04,03,06,45,22.80
2010,04,03,06,46,26.40
2010,04,03,06,47,19.30
2010,04,03,06,48,21.40
2010,04,03,06,49,21.10
2010,04,03,06,50,23.20
2010,04,03,06,51,29.30
2010,04,03,06,52,24.90
2010,04,03,06,53,23.90
2010,04,03,06,54,21.30
2010,04,03,06,55,21.20
2010,04,03,06,56,26.60
2010,04,03,06,57,19.50
2010,04,03,06,58,14.80
2010,04,03,06,59,13.30
2010,04,03,07,00,20.00
2010,04,03,07,01,14.00
2010,04,03,07,02,18.40
2010,04,03,07,03,19.80
2010,04,03,07,04,15.30
2010,04,03,07,05,14.90
2010,04,03,07,06,29.80
2010,04,03,07,07,19.40
2010,04,03,07,08,21.30
2010,04,03,07,09,20.50
2010,04,03,07,10,27.30
2010,04,03,07,11,22.80
2010,04,03,07,12,22.40
2010,04,03,07,13,22.10
2010,04,03,07,14,22.30
2010,04,03,07,15,15.70
2010,04,03,07,16,19.10
2010,04,03,07,17,20.00
2010,04,03,07,18,19.60
2010,04,03,07,19,22.10
2010,04,03,07,20,16.30
2010,04,03,07,21,13.30
2010,04,03,07,22,10.50
2010,04,03,07,23,20.40
2010,04,03,07,24,14.70
2010,04,03,07,25,20.10
2010,04,03,07,26,22.20
2010,04,03,07,27,22.80
2010,04,03,07,28,21.10
2010,04,03,07,29,14.70
2010,04,03,07,30,16.80
2010,04,03,07,31,17.80
2010,04,03,07,32,17.20
2010,04,03,07,33,21.60
2010,04,03,07,34,26.70
2010,04,03,07,35,22.30
2010,04,03,07,36,15.40
2010,04,03,07,37,14.50
2010,04,03,07,38,16.90
2010,04,03,07,39,22.50
2010,04,03,07,40,21.10
2010,04,03,07,41,22.00
2010,04,03,07,42,22.40
2010,04,03,07,43,23.50
2010,04,03,07,44,24.80
2010,04,03,07,45,20.00
2010,04,03,07,46,22.70
2010,04,03,07,47,23.50
2010,04,03,07,48,19.90
2010,04,03,07,49,21.60
2010,04,03,07,50,25.70
2010,04,03,07,51,19.20
2010,04,03,07,52,18.70
2010,04,03,07,53,23.30
2010,04,03,07,54,19.40
2010,04,03,07,55,14.40
2010,04,03,07,56,19.70
2010,04,03,07,57,13.40
2010,04,03,07,58,35.00
2010,04,03,07,59,29.70
2010,04,03,08,00,26.20
2010,04,03,08,01,35.70
2010,04,03,08,02,25.00
2010,04,03,08,03,24.40
2010,04,03,08,04,34.30
2010,04,03,08,05,31.20
2010,04,03,08,06,17.70
2010,04,03,08,07,13.50
2010,04,03,08,08,28.40
2010,04,03,08,09,26.00
2010,04,03,08,10,26.70
2010,04,03,08,11,23.50
2010,04,03,08,12,26.60
2010,04,03,08,13,21.00
2010,04,03,08,14,9.40
2010,04,03,08,15,8.60
2010,04,03,08,16,11.30
2010,04,03,08,17,10.80
2010,04,03,08,18,15.90
2010,04,03,08,19,14.60
2010,04,03,08,20,15.60
2010,04,03,08,21,19.40
2010,04,03,08,22,18.10
2010,04,03,08,23,12.50
2010,04,03,08,24,4.70
2010,04,03,08,25,8.40
2010,04,03,08,26,16.20
2010,04,03,08,27,12.60
2010,04,03,08,28,9.00
2010,04,03,08,29,7.20
2010,04,03,08,30,10.20
2010,04,03,08,31,9.50
2010,04,03,08,32,18.30
2010,04,03,08,33,17.70
2010,04,03,08,34,18.30
2010,04,03,08,35,14.40
2010,04,03,08,36,11.10
2010,04,03,08,37,17.00
2010,04,03,08,38,16.00
2010,04,03,08,39,17.30
2010,04,03,08,40,16.10
2010,04,03,08,41,10.50
2010,04,03,08,42,12.70
2010,04,03,08,43,16.00
2010,04,03,08,44,17.40
2010,04,03,08,45,20.30
2010,04,03,08,46,18.20
2010,04,03,08,47,29.50
2010,04,03,08,48,17.10
2010,04,03,08,49,12.30
2010,04,03,08,50,19.80
2010,04,03,08,51,23.90
2010,04,03,08,52,16.90
2010,04,03,08,53,12.70
2010,04,03,08,54,13.20
2010,04,03,08,55,9.60
2010,04,03,08,56,17.60
2010,04,03,08,57,12.60
2010,04,03,08,58,18.60
2010,04,03,08,59,13.70
2010,04,03,09,00,14.60
2010,04,03,09,01,15.90
2010,04,03,09,02,16.20
2010,04,03,09,03,22.90
2010,04,03,09,04,20.60
2010,04,03,09,05,13.90
2010,04,03,09,06,7.40
2010,04,03,09,07,11.00
2010,04,03,09,08,9.70
2010,04,03,09,09,12.50
2010,04,03,09,10,13.80
2010,04,03,09,11,15.00
2010,04,03,09,12,12.70
2010,04,03,09,13,8.90
2010,04,03,09,14,9.20
2010,04,03,09,15,14.10
2010,04,03,09,16,15.90
2010,04,03,09,17,18.30
2010,04,03,09,18,9.90
2010,04,03,09,19,11.30
2010,04,03,09,20,14.90
2010,04,03,09,21,10.80
2010,04,03,09,22,10.50
2010,04,03,09,23,12.70
2010,04,03,09,24,15.30
2010,04,03,09,25,17.80
2010,04,03,09,26,9.20
2010,04,03,09,27,12.40
2010,04,03,09,28,12.70
2010,04,03,09,29,19.70
2010,04,03,09,30,22.10
2010,04,03,09,31,22.50
2010,04,03,09,32,24.00
2010,04,03,09,33,25.10
2010,04,03,09,34,24.70
2010,04,03,09,35,21.50
2010,04,03,09,36,13.50
2010,04,03,09,37,16.20
2010,04,03,09,38,19.20
2010,04,03,09,39,25.40
2010,04,03,09,40,22.80
2010,04,03,09,41,24.90
2010,04,03,09,42,21.50
2010,04,03,09,43,17.80
2010,04,03,09,44,18.80
2010,04,03,09,45,21.00
2010,04,03,09,46,14.10
2010,04,03,09,47,15.20
2010,04,03,09,48,17.60
2010,04,03,09,49,23.70
2010,04,03,09,50,19.20
2010,04,03,09,51,20.40
2010,04,03,09,52,24.70
2010,04,03,09,53,17.60
2010,04,03,09,54,25.80
2010,04,03,09,55,19.00
2010,04,03,09,56,26.00
2010,04,03,09,57,20.10
2010,04,03,09,58,13.50
2010,04,03,09,59,19.50
2010,04,03,10,00,16.10
2010,04,03,10,01,16.20
2010,04,03,10,02,20.40
2010,04,03,10,03,26.10
2010,04,03,10,04,18.20
2010,04,03,10,05,25.40
2010,04,03,10,06,25.50
2010,04,03,10,07,16.30
2010,04,03,10,08,18.00
2010,04,03,10,09,21.00
2010,04,03,10,10,14.90
2010,04,03,10,11,15.90
2010,04,03,10,12,15.90
2010,04,03,10,13,12.20
2010,04,03,10,14,12.50
2010,04,03,10,15,11.80
2010,04,03,10,16,16.60
2010,04,03,10,17,17.60
2010,04,03,10,18,13.00
2010,04,03,10,19,9.10
2010,04,03,10,20,17.80
2010,04,03,10,21,19.30
2010,04,03,10,22,13.10
2010,04,03,10,23,13.70
2010,04,03,10,24,13.80
2010,04,03,10,25,23.00
2010,04,03,10,26,23.50
2010,04,03,10,27,27.20
2010,04,03,10,28,22.10
2010,04,03,10,29,21.10
2010,04,03,10,30,20.10
2010,04,03,10,31,15.60
2010,04,03,10,32,14.60
2010,04,03,10,33,16.90
2010,04,03,10,34,21.80
2010,04,03,10,35,19.50
2010,04,03,10,36,20.30
2010,04,03,10,37,18.30
2010,04,03,10,38,19.60
2010,04,03,10,39,13.50
2010,04,03,10,40,10.50
2010,04,03,10,41,6.90
2010,04,03,10,42,7.70
2010,04,03,10,43,12.60
2010,04,03,10,44,7.40
2010,04,03,10,45,5.00
2010,04,03,10,46,6.10
2010,04,03,10,47,7.00
2010,04,03,10,48,7.10
2010,04,03,10,49,7.20
2010,04,03,10,50,11.70
2010,04,03,10,51,11.90
2010,04,03,10,52,10.20
2010,04,03,10,53,10.30
2010,04,03,10,54,8.00
2010,04,03,10,55,5.50
2010,04,03,10,56,9.10
2010,04,03,10,57,6.40
2010,04,03,10,58,8.50
2010,04,03,10,59,3.70
2010,04,03,11,00,3.10
2010,04,03,11,01,4.60
2010,04,03,11,02,8.10
2010,04,03,11,03,4.70
2010,04,03,11,04,3.30
2010,04,03,11,05,4.80
2010,04,03,11,06,4.50
2010,04,03,11,07,6.10
2010,04,03,11,08,5.50
2010,04,03,11,09,3.50
2010,04,03,11,10,5.00
2010,04,03,11,11,5.60
2010,04,03,11,12,3.70
2010,04,03,11,13,2.70
2010,04,03,11,14,3.90
2010,04,03,11,15,6.60
2010,04,03,11,16,3.90
2010,04,03,11,17,1.80
2010,04,03,11,18,0.60
2010,04,03,11,19,2.10
2010,04,03,11,20,0.10
2010,04,03,11,21,0.10
2010,04,03,11,22,2.80
2010,04,03,11,23,2.10
2010,04,03,11,24,0.00
2010,04,03,11,25,0.10
2010,04,03,11,26,1.00
2010,04,03,11,27,3.20
2010,04,03,11,28,3.90
2010,04,03,11,29,2.30
2010,04,03,11,30,2.00
2010,04,03,11,31,2.80
2010,04,03,11,32,2.50
2010,04,03,11,33,3.60
2010,04,03,11,34,1.10
2010,04,03,11,35,0.20
2010,04,03,11,36,2.40
2010,04,03,11,37,2.50
2010,04,03,11,38,2.60
2010,04,03,11,39,0.20
2010,04,03,11,40,0.80
2010,04,03,11,41,1.80
2010,04,03,11,42,0.80
2010,04,03,11,43,2.90
2010,04,03,11,44,0.20
2010,04,03,11,45,1.80
2010,04,03,11,46,1.80
2010,04,03,11,47,3.00
2010,04,03,11,48,5.60
2010,04,03,11,49,3.20
2010,04,03,11,50,1.60
2010,04,03,11,51,0.40
2010,04,03,11,52,0.30
2010,04,03,11,53,0.10
2010,04,03,11,54,0.00
2010,04,03,11,55,3.10
2010,04,03,11,56,6.40
2010,04,03,11,57,5.20
2010,04,03,11,58,3.70
2010,04,03,11,59,3.60
2010,04,03,12,00,3.20
2010,04,03,12,01,2.20
2010,04,03,12,02,5.20
2010,04,03,12,03,4.00
2010,04,03,12,04,4.80
2010,04,03,12,05,6.90
2010,04,03,12,06,6.20
2010,04,03,12,07,5.00
2010,04,03,12,08,5.10
2010,04,03,12,09,3.90
2010,04,03,12,10,5.00
2010,04,03,12,11,4.50
2010,04,03,12,12,3.40
2010,04,03,12,13,2.00
2010,04,03,12,14,4.80
2010,04,03,12,15,2.70
2010,04,03,12,16,2.40
2010,04,03,12,17,5.50
2010,04,03,12,18,4.80
2010,04,03,12,19,3.10
2010,04,03,12,20,4.90
2010,04,03,12,21,3.40
2010,04,03,12,22,1.90
2010,04,03,12,23,0.60
2010,04,03,12,24,0.10
2010,04,03,12,25,1.30
2010,04,03,12,26,1.60
2010,04,03,12,27,0.30
2010,04,03,12,28,0.60
2010,04,03,12,29,1.00
2010,04,03,12,30,1.70
2010,04,03,12,31,2.80
2010,04,03,12,32,6.40
2010,04,03,12,33,5.90
2010,04,03,12,34,6.60
2010,04,03,12,35,2.30
2010,04,03,12,36,8.00
2010,04,03,12,37,7.80
2010,04,03,12,38,9.30
2010,04,03,12,39,9.20
2010,04,03,12,40,9.40
2010,04,03,12,41,7.10
2010,04,03,12,42,5.90
2010,04,03,12,43,4.10
2010,04,03,12,44,5.80
2010,04,03,12,45,5.10
2010,04,03,12,46,4.40
2010,04,03,12,47,9.00
2010,04,03,12,48,8.00
2010,04,03,12,49,6.70
2010,04,03,12,50,7.00
2010,04,03,12,51,4.20
2010,04,03,12,52,6.70
2010,04,03,12,53,4.20
2010,04,03,12,54,4.00
2010,04,03,12,55,3.20
2010,04,03,12,56,3.70
2010,04,03,12,57,2.50
2010,04,03,12,58,3.40
2010,04,03,12,59,3.40
2010,04,03,13,00,8.80
2010,04,03,13,01,6.20
2010,04,03,13,02,2.90
2010,04,03,13,03,2.50
2010,04,03,13,04,2.60
2010,04,03,13,05,4.10
2010,04,03,13,06,2.30
2010,04,03,13,07,4.80
2010,04,03,13,08,8.20
2010,04,03,13,09,5.30
2010,04,03,13,10,7.10
2010,04,03,13,11,8.70
2010,04,03,13,12,9.40
2010,04,03,13,13,6.70
2010,04,03,13,14,8.40
2010,04,03,13,15,7.40
2010,04,03,13,16,3.20
2010,04,03,13,17,1.30
2010,04,03,13,18,7.10
2010,04,03,13,19,2.10
2010,04,03,13,20,2.50
2010,04,03,13,21,5.00
2010,04,03,13,22,7.00
2010,04,03,13,23,3.70
2010,04,03,13,24,4.70
2010,04,03,13,25,4.40
2010,04,03,13,26,6.40
2010,04,03,13,27,5.30
2010,04,03,13,28,5.00
2010,04,03,13,29,6.10
2010,04,03,13,30,8.00
2010,04,03,13,31,6.70
2010,04,03,13,32,4.60
2010,04,03,13,33,3.90
2010,04,03,13,34,7.00
2010,04,03,13,35,3.90
2010,04,03,13,36,4.40
2010,04,03,13,37,7.60
2010,04,03,13,38,3.60
2010,04,03,13,39,5.40
2010,04,03,13,40,6.60
2010,04,03,13,41,3.40
2010,04,03,13,42,3.40
2010,04,03,13,43,1.80
2010,04,03,13,44,7.50
2010,04,03,13,45,7.00
2010,04,03,13,46,7.30
2010,04,03,13,47,4.20
2010,04,03,13,48,6.80
2010,04,03,13,49,4.40
2010,04,03,13,50,3.80
2010,04,03,13,51,5.10
2010,04,03,13,52,1.00
2010,04,03,13,53,4.80
2010,04,03,13,54,4.00
2010,04,03,13,55,7.20
2010,04,03,13,56,3.80
2010,04,03,13,57,8.30
2010,04,03,13,58,6.40
2010,04,03,13,59,6.80
2010,04,03,14,00,10.10
2010,04,03,14,01,9.70
2010,04,03,14,02,12.30
2010,04,03,14,03,6.00
2010,04,03,14,04,4.90
2010,04,03,14,05,8.30
2010,04,03,14,06,7.80
2010,04,03,14,07,9.20
2010,04,03,14,08,5.00
2010,04,03,14,09,6.50
2010,04,03,14,10,9.70
2010,04,03,14,11,8.70
2010,04,03,14,12,7.90
2010,04,03,14,13,9.10
2010,04,03,14,14,3.50
2010,04,03,14,15,7.60
2010,04,03,14,16,5.00
2010,04,03,14,17,5.60
2010,04,03,14,18,8.40
2010,04,03,14,19,4.40
2010,04,03,14,20,2.60
2010,04,03,14,21,5.40
2010,04,03,14,22,2.90
2010,04,03,14,23,9.60
2010,04,03,14,24,8.90
2010,04,03,14,25,8.10
2010,04,03,14,26,5.60
2010,04,03,14,27,3.50
2010,04,03,14,28,7.80
2010,04,03,14,29,10.20
2010,04,03,14,30,9.60
2010,04,03,14,31,5.20
2010,04,03,14,32,6.70
2010,04,03,14,33,9.10
2010,04,03,14,34,6.80
2010,04,03,14,35,6.60
2010,04,03,14,36,7.90
2010,04,03,14,37,8.70
2010,04,03,14,38,5.60
2010,04,03,14,39,4.90
2010,04,03,14,40,7.40
2010,04,03,14,41,4.70
2010,04,03,14,42,7.70
2010,04,03,14,43,4.60
2010,04,03,14,44,6.00
2010,04,03,14,45,7.20
2010,04,03,14,46,12.80
2010,04,03,14,47,7.50
2010,04,03,14,48,7.00
2010,04,03,14,49,11.30
2010,04,03,14,50,6.70
2010,04,03,14,51,10.60
2010,04,03,14,52,6.90
2010,04,03,14,53,12.10
2010,04,03,14,54,10.60
2010,04,03,14,55,10.70
2010,04,03,14,56,5.20
2010,04,03,14,57,10.70
2010,04,03,14,58,9.60
2010,04,03,14,59,10.10
2010,04,03,15,00,7.60
2010,04,03,15,01,4.80
2010,04,03,15,02,6.60
2010,04,03,15,03,5.90
2010,04,03,15,04,8.60
2010,04,03,15,05,7.80
2010,04,03,15,06,7.00
2010,04,03,15,07,7.50
2010,04,03,15,08,6.10
2010,04,03,15,09,3.70
2010,04,03,15,10,4.20
2010,04,03,15,11,8.70
2010,04,03,15,12,7.40
2010,04,03,15,13,4.60
2010,04,03,15,14,3.10
2010,04,03,15,15,5.00
2010,04,03,15,16,7.20
2010,04,03,15,17,12.90
2010,04,03,15,18,10.20
2010,04,03,15,19,4.70
2010,04,03,15,20,9.00
2010,04,03,15,21,8.10
2010,04,03,15,22,17.50
2010,04,03,15,23,9.30
2010,04,03,15,24,9.00
2010,04,03,15,25,6.80
2010,04,03,15,26,10.80
2010,04,03,15,27,15.10
2010,04,03,15,28,8.30
2010,04,03,15,29,7.90
2010,04,03,15,30,9.30
2010,04,03,15,31,8.40
2010,04,03,15,32,10.90
2010,04,03,15,33,8.00
2010,04,03,15,34,5.50
2010,04,03,15,35,5.60
2010,04,03,15,36,12.10
2010,04,03,15,37,9.40
2010,04,03,15,38,7.90
2010,04,03,15,39,3.20
2010,04,03,15,40,4.00
2010,04,03,15,41,6.00
2010,04,03,15,42,6.90
2010,04,03,15,43,6.60
2010,04,03,15,44,8.60
2010,04,03,15,45,6.60
2010,04,03,15,46,9.40
2010,04,03,15,47,5.10
2010,04,03,15,48,8.60
2010,04,03,15,49,7.60
2010,04,03,15,50,9.70
2010,04,03,15,51,8.20
2010,04,03,15,52,3.40
2010,04,03,15,53,5.40
2010,04,03,15,54,6.40
2010,04,03,15,55,6.50
2010,04,03,15,56,8.50
2010,04,03,15,57,5.90
2010,04,03,15,58,9.90
2010,04,03,15,59,9.90
2010,04,03,16,00,6.70
2010,04,03,16,01,6.40
2010,04,03,16,02,9.90
2010,04,03,16,03,10.60
2010,04,03,16,04,9.40
2010,04,03,16,05,6.90
2010,04,03,16,06,7.90
2010,04,03,16,07,9.60
2010,04,03,16,08,5.80
2010,04,03,16,09,3.80
2010,04,03,16,10,7.20
2010,04,03,16,11,10.90
2010,04,03,16,12,8.80
2010,04,03,16,13,3.30
2010,04,03,16,14,3.40
2010,04,03,16,15,5.40
2010,04,03,16,16,3.70
2010,04,03,16,17,3.00
2010,04,03,16,18,7.20
2010,04,03,16,19,4.90
2010,04,03,16,20,10.00
2010,04,03,16,21,8.40
2010,04,03,16,22,5.50
2010,04,03,16,23,2.40
2010,04,03,16,24,7.20
2010,04,03,16,25,8.80
2010,04,03,16,26,10.90
2010,04,03,16,27,6.40
2010,04,03,16,28,1.70
2010,04,03,16,29,2.30
2010,04,03,16,30,8.40
2010,04,03,16,31,6.70
2010,04,03,16,32,2.60
2010,04,03,16,33,3.00
2010,04,03,16,34,7.30
2010,04,03,16,35,7.20
2010,04,03,16,36,3.60
2010,04,03,16,37,6.10
2010,04,03,16,38,4.70
2010,04,03,16,39,7.20
2010,04,03,16,40,7.70
2010,04,03,16,41,5.40
2010,04,03,16,42,6.30
2010,04,03,16,43,7.80
2010,04,03,16,44,4.50
2010,04,03,16,45,5.00
2010,04,03,16,46,7.60
2010,04,03,16,47,3.80
2010,04,03,16,48,2.90
2010,04,03,16,49,4.80
2010,04,03,16,50,2.30
2010,04,03,16,51,8.00
2010,04,03,16,52,4.10
2010,04,03,16,53,2.90
2010,04,03,16,54,5.30
2010,04,03,16,55,8.10
2010,04,03,16,56,4.70
2010,04,03,16,57,4.10
2010,04,03,16,58,4.20
2010,04,03,16,59,5.80
2010,04,03,17,00,4.50
2010,04,03,17,01,4.40
2010,04,03,17,02,9.00
2010,04,03,17,03,9.10
2010,04,03,17,04,4.80
2010,04,03,17,05,5.40
2010,04,03,17,06,4.20
2010,04,03,17,07,3.70
2010,04,03,17,08,1.20
2010,04,03,17,09,7.10
2010,04,03,17,10,5.80
2010,04,03,17,11,5.90
2010,04,03,17,12,4.20
2010,04,03,17,13,6.70
2010,04,03,17,14,1.40
2010,04,03,17,15,4.40
2010,04,03,17,16,7.80
2010,04,03,17,17,8.80
2010,04,03,17,18,6.70
2010,04,03,17,19,7.40
2010,04,03,17,20,7.70
2010,04,03,17,21,5.40
2010,04,03,17,22,6.40
2010,04,03,17,23,5.80
2010,04,03,17,24,7.80
2010,04,03,17,25,2.70
2010,04,03,17,26,1.70
2010,04,03,17,27,4.20
2010,04,03,17,28,5.60
2010,04,03,17,29,2.50
2010,04,03,17,30,3.60
2010,04,03,17,31,2.30
2010,04,03,17,32,3.70
2010,04,03,17,33,2.30
2010,04,03,17,34,2.20
2010,04,03,17,35,2.40
2010,04,03,17,36,0.80
2010,04,03,17,37,4.60